Preview of NWS' New Version of Forecast
This preview is not operational and should not be used for support decisions.

Regional Weather Roundup (RWR)

Issued by Gray - Portland, ME (GYX)

                            
610 
ASUS41 KGYX 250705
RWRGYX
WEATHER ROUNDUP FOR MAINE AND NEW HAMPSHIRE
NATIONAL WEATHER SERVICE GRAY ME
300 AM EDT FRI MAY 25 2018

MEZ002-005-006-010-012-015-018-020-021-024-026-027-029-250800-
MAINE
  
CITY           SKY/WX    TMP DP  RH WIND       PRES   REMARKS
PORTLAND       FAIR      53  50  89 SW7       29.90F                  
SANFORD        FAIR      50  48  93 CALM      29.93F                  
BAR HARBOR     FAIR      50  47  89 SW14      29.87F                  
WISCASSET      FAIR      52  50  93 SW3       29.89F                  
ROCKLAND       FAIR      52  48  86 SW10G16   29.88F                  
FRYEBURG       FAIR      58  39  49 W9        29.88F                  
LEWISTONAUBURN FAIR      43  43 100 CALM      29.88F                  
AUGUSTA        FAIR      48  47  96 S6        29.86F                  
WATERVILLE     FAIR      47  46  97 VRB6      29.82F                  
BANGOR         FAIR      50  48  93 S12       29.82F                  
GREENVILLE       N/A     46  45  96 VRB3      29.76F                  
MILLINOCKET    FAIR      50  45  83 CALM      29.78F                  
HOULTON        CLOUDY    49  46  90 CALM      29.77F                  
PRESQUE ISLE   LGT RAIN  48  47  96 S8        29.74F                  
FRENCHVILLE    LGT RAIN  48  43  82 S14       29.68F                  
CARIBOU        LGT RAIN  49  45  86 S9        29.72F                  
$$

NHZ002-005-008-009-011-012-014-250800-
NEW HAMPSHIRE
  
CITY           SKY/WX    TMP DP  RH WIND       PRES   REMARKS
PORTSMOUTH     PTCLDY    55  49  82 SW8       29.93F                  
ROCHESTER      FAIR      51  50  96 CALM      29.93F                  
NASHUA         FAIR      54  52  93 SE3       29.97F                  
MANCHESTER     FAIR      59  50  72 SE3       29.95F                  
CONCORD        FAIR      51  48  89 S3        29.95F                  
LACONIA        FAIR      53  48  83 CALM      29.94F                  
PLYMOUTH       FAIR      42  42  97 CALM      29.95F                  
BERLIN         FAIR      40  38  93 CALM      29.88F                  
WHITEFIELD     FAIR      40  38  93 CALM      29.92F                  
JAFFREY        FAIR      56  51  84 SW6       30.01F                  
KEENE          FAIR      46  45  96 CALM      30.01F                  
LEBANON        FAIR      46  41  82 CALM      29.95F                  
MT WASHINGTON  PTCLDY    43  32  65 W59G66      N/A                   
$$

VTZ005-007-008-250800-
VERMONT
  
CITY           SKY/WX    TMP DP  RH WIND       PRES   REMARKS
ST JOHNSBURY     N/A     45  43  93 MISG      29.90F                  
MONTPELIER     FAIR      48  44  86 NE3       29.96F                  
BURLINGTON     FAIR      67  42  40 S13       29.89F                  
$$

MAZ007-012-024-CTZ003-RIZ002-NYZ038-NYZ072-250800-
SOUTHERN NEW ENGLAND AND NY
  
CITY           SKY/WX    TMP DP  RH WIND       PRES   REMARKS
BOSTON         FAIR      55  48  77 SW12      29.99F                  
WORCESTER      FAIR      54  45  71 W14       30.02F                  
NANTUCKET      FOG       52  52 100 SW13      30.07F VSB 1/4          
PROVIDENCE     FAIR      50  48  93 S5        30.05F                  
HARTFORD       FAIR      53  51  93 S8        30.03F                  
ALBANY         FAIR      57  47  69 CALM      30.00F                  
NEW YORK CITY  FAIR      70  48  45 SW13      30.05F                  
$$

ANZ081-ANZ082-ANZ150-NHZ014-MEZ023>029-250800-
COASTAL MARINE OBSERVATIONS
  
STATION/POSITION TIME  TEMP    WIND        PRES    WAVE
                       AIR SEA DIR/SP/G            HT/PER
                 (UTC) (F)     (DEG/KT/KT) (MB)    (FT/S)
MOUNT DESERT ROC 0700   48     190/ 23/ 24 1012.4F
MATINICUS ROCK   0600   50     210/ 21/ 24 1013.2F
ISLE OF SHOALS   0600   55     230/ 19/ 20 1013.9F
JEFFREYS LEDGE   0636      52                N/A     4/ 5
$$

.............KEY..............
   WCI - WIND CHILL
   TC  - TEMPERATURE IN CELSIUS
   VSB - VISIBILITY IN MILES
   HX  - HEAT INDEX
   FAIR- INDICATES FEW OR NO CLOUDS BELOW 12,000 FT, WITH NO 
         SIGNIFICANT WEATHER AND/OR OBSTRUCTIONS TO VISIBILITY.